Location: Pouzilhac
(44.0399°N, 4.5803°E)
Time: 09:09:12
(UTC+00:00)

Daily predictions for brighter satellites

Satellite Brightness Start Highest point End
(mag) Time Altitude Azimuth Time Altitude Azimuth Time Altitude Azimuth
BREEZE-M DEB (TANK) 4.5 19:16:44 10° WNW 19:21:33 74° NNE 19:41:22 10° ESE
NOSS 3-3 (A) 4.2 19:29:03 10° SW 19:34:45 75° NW 19:41:20 10° NE
NOSS 3-3 (C) 4.2 19:29:08 10° SW 19:34:52 76° NW 19:41:25 10° NE
Cosmos 1812 3.7 19:34:17 10° SSE 19:37:35 27° E 19:40:53 10° NNE
GPS 2-04 Rocket1 4.2 19:35:08 10° WSW 19:38:30 24° S 19:41:52 10° SE
ATLAS 2AS CENTAUR R/B 3.9 19:33:06 10° NNW 19:39:50 35° NE 19:46:05 10° E
Cosmos 1833 Rocket 2.9 19:35:04 10° NNW 19:40:42 62° ENE 19:46:16 10° SE
USA 307 3.0 19:38:34 10° NW 19:42:51 74° NE 19:47:08 10° ESE
OAO 3 Rocket 4.4 19:39:40 10° SW 19:43:13 22° SSE 19:46:47 10° ESE
Cosmos 1745 Rocket 4.5 19:38:34 10° NNW 19:44:40 64° W 19:50:42 10° S
Cosmos 1709 Rocket 4.0 19:40:17 10° N 19:46:26 78° E 19:52:32 10° SSE
CZ-4C R/B 3.1 19:40:59 10° NW 19:48:21 87° WSW 19:56:51 10° SSE
IRS-1A Rocket 4.4 19:44:58 10° SSE 19:50:47 88° ENE 19:56:44 10° NNW
Cosmos 1782 3.0 19:51:12 10° SSW 19:55:10 77° W 19:59:10 10° N
USA 308 2.9 19:52:25 10° NW 19:56:44 90° S 20:00:33 13° SE
X-37B 3.2 19:58:50 10° WSW 19:59:49 11° SW 20:00:50 10° SSW
Cosmos 1500 3.1 19:58:45 10° N 20:02:29 74° E 20:06:12 10° SSE
Cosmos 1437 3.0 20:00:34 10° SSW 20:03:22 58° W 20:06:10 10° N
SJ-6B 4.4 20:03:42 10° SSW 20:07:19 35° W 20:11:03 10° NNW
Meteor 1-5 Rocket 4.2 20:02:34 10° N 20:07:52 62° ENE 20:12:48 12° SSE
Terra 3.7 20:12:16 10° E 20:15:06 16° ENE 20:17:58 10° NNE
MetOp-B 4.3 20:11:26 13° SSE 20:16:07 59° ENE 20:21:24 10° N
Cosmos 1515 Rocket 3.5 20:14:52 10° S 20:19:16 81° E 20:23:39 10° N
Meteor 1-11 Rocket 4.3 20:13:37 10° N 20:19:18 44° ENE 20:23:31 17° SE
USA 267 4.4 20:15:41 10° S 20:21:27 33° SW 20:27:16 10° WNW
Cosmos 2228 Rocket 3.8 20:19:04 16° SSE 20:22:03 36° E 20:26:10 10° NNE
Cosmos 1633 Rocket 4.3 20:19:21 10° NNW 20:23:30 41° W 20:27:39 10° SSW
Tianhe-1 1.6 20:20:44 10° SW 20:23:40 38° SSE 20:25:05 23° ESE
Resurs 01 Rocket 1.7 20:21:32 11° S 20:25:44 78° WSW 20:30:11 10° NNW
Cosmos 1869 Rocket 4.4 20:22:53 10° N 20:26:49 33° ENE 20:29:01 21° SE
BREEZE M DEB (TANK) 2.7 20:25:23 10° WNW 20:29:43 44° N 20:31:13 18° ENE
SWARM C 4.4 20:27:36 10° N 20:30:56 89° W 20:33:17 18° S
SWARM A 4.2 20:27:43 10° N 20:31:03 86° W 20:33:27 17° S
Cosmos 2082 Rocket 2.2 20:25:58 10° NNW 20:31:37 80° ENE 20:35:40 20° SSE
SPOT 1/Viking Rocket 3.6 20:27:48 18° SSE 20:31:41 65° ENE 20:36:49 10° N
ERS-1 Rocket 3.9 20:29:27 18° ESE 20:32:21 33° ENE 20:36:48 10° N
USA 305 3.6 20:30:11 10° WNW 20:34:13 43° SW 20:36:40 21° SSE
Cosmos 1943 Rocket 2.9 20:35:05 19° SSE 20:38:05 31° ESE 20:42:58 10° NE
Spot 2 Rocket 3.7 20:35:19 21° SE 20:38:31 55° ENE 20:43:26 10° N
Cosmos 1937 Rocket 4.3 20:36:59 22° SE 20:39:15 31° E 20:43:45 10° NE
OBJECT-B 4.0 20:39:51 10° WSW 20:40:29 10° W 20:41:09 10° WNW
Cosmos 1470 Rocket 4.5 20:36:39 10° NNW 20:40:58 48° W 20:45:16 10° SSW
Meteor 1-10 Rocket 4.2 20:36:07 10° S 20:41:42 85° E 20:47:26 10° NNE
ERBS 4.0 20:40:17 10° NNW 20:43:07 26° NNE 20:44:57 16° ENE
CARTOSAT-1 3.9 20:42:25 26° SE 20:44:35 51° ENE 20:48:46 10° N
Landsat 7 4.1 20:40:50 15° S 20:44:43 66° WSW 20:49:28 10° NNW
SPOT 5 3.7 20:42:26 23° SE 20:45:17 43° ENE 20:50:18 10° N
DNEPR-1 R/B 4.3 20:40:20 10° SSW 20:46:19 49° ESE 20:51:16 10° NE
Cosmos 1536 3.2 20:43:20 10° N 20:47:14 45° ENE 20:48:43 31° SE
SPOT 3 Rocket 4.0 20:43:35 13° S 20:48:06 57° W 20:53:12 10° NNW
CZ-2C R/B 3.7 20:43:47 10° NNE 20:48:20 82° WNW 20:52:56 10° SSW
Cosmos 1271 Rocket 3.0 20:44:42 10° SSW 20:48:40 70° W 20:52:41 10° N
COSMOS 2406 4.4 20:48:12 10° NW 20:53:20 36° WSW 20:58:07 11° SSW
USA 306 4.1 20:50:03 10° WNW 20:53:49 31° SW 20:55:36 22° S
ISS -3.2 20:51:03 10° WSW 20:54:23 61° NNW 20:57:44 10° NE
Cosmos 1933 Rocket 4.2 20:50:30 10° NNW 20:54:43 51° W 20:57:58 16° SSW
Cosmos 1680 Rocket 3.6 20:49:24 10° NNW 20:54:44 68° ENE 20:57:31 28° SE
Cosmos 2278 Rocket 3.7 20:49:43 10° SW 20:55:00 39° NW 21:00:17 10° NNE
SJ 16-02 2.9 20:53:19 10° SW 20:57:27 37° WNW 21:01:36 10° N
Cosmos 2084 Rocket 3.9 20:54:46 10° NNW 20:58:58 53° NE 21:00:52 30° ESE
Cosmos 2369 Rocket 3.2 20:58:46 24° ESE 20:59:30 25° ESE 21:03:59 10° NE
Cosmos 1544 3.5 20:57:05 10° N 21:00:35 45° ENE 21:01:17 39° ESE
Cosmos 1666 4.0 21:03:46 10° NNW 21:07:09 34° W 21:09:29 17° SSW
JB-3 4.1 21:06:31 10° NNE 21:10:23 89° W 21:12:00 33° SSW
Cosmos 1733 Rocket 4.0 21:07:41 10° N 21:11:35 32° ENE 21:12:25 30° E
ARIANE 5 R/B 2.6 21:10:14 33° S 21:12:07 77° WSW 21:16:28 10° NNW
RESURS DK-1 4.5 21:13:23 10° N 21:16:08 17° NE 21:17:43 14° ENE
Iridium 4 Rocket 4.3 21:12:29 12° SSW 21:17:45 58° W 21:23:34 10° N
NOSS 3-4 (A) 4.4 21:11:03 10° NW 21:17:54 51° WSW 21:22:34 24° S
NOSS 3-4 (C) 4.4 21:11:09 10° NW 21:18:01 51° WSW 21:22:39 24° S
USA 245 3.9 21:18:31 25° W 21:18:31 25° W 21:20:23 10° NW
BREEZE-M DEB (TANK) 2.0 21:17:05 10° NW 21:18:57 48° NNE 21:18:57 48° NNE
Cosmos 372 Rocket 4.4 21:20:07 37° SE 21:20:57 40° ESE 21:25:42 10° NE
Cosmos 990 Rocket 4.4 21:18:14 10° SSW 21:23:25 63° WNW 21:28:40 10° NNE
OAO 3 Rocket 4.4 21:22:06 10° WSW 21:24:50 24° SSW 21:24:50 24° SSW
Cosmos 1898 Rocket 3.7 21:21:37 13° SSW 21:26:24 74° WNW 21:31:46 10° NNE
Meteor 1-27 Rocket 4.2 21:24:44 14° SSW 21:29:45 63° WNW 21:35:40 10° N
ATLAS 2AS CENTAUR R/B 2.8 21:24:07 10° NW 21:31:21 68° WSW 21:34:30 34° SSE
SL-24 R/B - RUBIN 2 4.0 21:27:22 10° NW 21:32:38 62° WSW 21:34:02 43° S
Cosmos 44 3.7 21:28:57 10° NW 21:34:17 60° WSW 21:35:56 40° S
Cosmos 1818 3.5 21:31:30 10° NW 21:37:01 87° WSW 21:38:46 45° SSE
Cosmos 2154 Rocket 4.4 21:31:13 10° NNW 21:37:24 60° W 21:40:59 26° SSW
Cosmos 1743 2.6 21:34:49 10° N 21:38:42 82° W 21:39:06 69° SSW
Cosmos 962 Rocket 4.4 21:36:08 10° N 21:42:18 89° E 21:44:46 39° S
Meteor 1-19 Rocket 4.2 21:43:17 47° SSE 21:44:33 60° E 21:49:53 10° NNE
BREEZE-M R/B 3.5 21:45:50 10° NW 21:48:00 33° N 21:48:00 33° N
H-2A R/B 3.5 21:47:24 10° N 21:51:35 74° WNW 21:52:23 55° SW
Meteor 2-4 Rocket 4.2 21:50:59 39° ESE 21:51:46 41° E 21:56:57 10° NNE
Terra 2.0 21:51:09 48° SSW 21:52:19 66° WSW 21:57:05 10° NNW
Cosmos 1461 3.7 21:50:19 13° SW 21:54:27 59° NW 21:59:03 10° NNE
Okean 1-7 4.4 21:56:31 25° ENE 21:56:31 25° ENE 21:59:25 10° NNE
Gbstr 26 Del rocket 4.0 21:48:34 10° WNW 21:56:05 79° SW 21:58:20 44° SE
Cosmos 1862 Rocket 3.3 21:57:49 76° S 21:58:09 87° E 22:02:30 10° N
Cosmos 1340 Rocket 3.9 21:55:55 10° NNW 21:59:39 35° W 22:00:21 33° WSW
Tianhe-1 4.0 21:56:57 10° W 21:57:05 11° W 21:57:05 11° W
Okean 1 3.3 22:00:55 68° WSW 22:01:07 70° W 22:05:07 10° N
Cosmos 1125 Rocket 4.4 22:04:18 32° E 22:04:18 32° E 22:08:27 10° NE
ATLAS CENTAUR R/B 2.7 22:10:15 26° NE 22:10:15 26° NE 22:12:07 10° NE
Cosmos 1607 3.9 22:06:38 41° SSW 22:08:59 72° ESE 22:15:28 10° NE
ERS-1 Rocket 4.2 22:09:26 26° SW 22:11:06 32° W 22:15:36 10° NNW
Cosmos 2082 Rocket 4.4 22:11:54 10° WNW 22:14:56 15° W 22:17:31 11° SW
Cosmos 2366 rocket 3.9 22:11:03 10° N 22:17:18 88° W 22:18:59 52° S
Cosmos 2181 Rocket 4.0 22:16:13 43° SSW 22:18:22 76° W 22:24:31 10° N
ERBS 4.3 22:16:12 10° WNW 22:17:42 22° WNW 22:17:42 22° WNW
Cosmos 1943 Rocket 3.3 22:16:31 11° SW 22:21:41 41° WNW 22:26:58 10° NNE
Milstar 3 4.4 22:19:36 10° WSW 22:29:20 28° SSW 22:29:20 28° SSW
Cosmos 1867 3.7 22:28:40 42° SW 22:30:33 75° NW 22:36:04 10° NNE
Spot 4 3.9 22:30:35 63° E 22:30:52 65° ENE 22:35:42 10° N
Cosmos 1656 Rocket 3.5 22:30:07 66° SSW 22:30:56 85° ESE 22:36:31 10° NNE
ISS -1.3 22:28:53 10° WNW 22:31:40 23° N 22:34:28 10° NE
Cosmos 1238 Rocket 4.3 22:31:37 10° NNW 22:36:52 39° W 22:37:53 35° WSW
Cosmos 1975 3.7 22:37:49 10° NNW 22:41:09 43° WNW 22:41:09 43° WNW
Cosmos 1048 Rocket 3.8 22:37:07 10° NNW 22:42:27 87° WSW 22:42:47 79° S
Cosmos 2369 Rocket 2.9 22:40:30 29° WSW 22:43:10 51° WNW 22:48:40 10° NNE
Cosmos 724 4.4 22:44:34 60° SE 22:44:59 62° ESE 22:51:09 10° NE
Cosmos 2218 Rocket 4.5 22:40:50 10° NNW 22:46:56 52° W 22:48:39 41° SW
ALOS 2 3.1 22:47:43 51° ENE 22:47:43 51° ENE 22:51:44 10° N
Cosmos 2344 4.5 22:39:14 10° NW 22:48:31 72° NE 22:56:38 26° SE
Okean 3 4.2 22:51:44 45° NE 22:51:44 45° NE 22:54:58 10° NNE
BREEZE-M DEB (TANK) 4.0 22:36:28 10° WNW 22:51:27 90° N 22:52:48 54° ESE
Lacrosse 5 2.6 22:54:17 42° E 22:54:17 42° E 22:57:54 10° NE
RESURS DK-1 3.2 22:50:26 10° NW 22:53:36 45° WNW 22:53:36 45° WNW
SL-27 R/B 4.2 22:51:11 10° NNW 22:53:01 30° NNW 22:53:01 30° NNW
Cosmos 1356 Rocket 3.9 22:54:02 10° N 22:57:42 58° NNE 22:57:42 58° NNE
Nadezhda 3 Rocket 3.8 22:59:44 65° S 23:00:45 84° E 23:06:59 10° N
Cosmos 1300 Rocket 4.4 22:59:12 10° N 23:02:55 41° ENE 23:02:55 41° ENE
Meteor 1-12 Rocket 4.1 23:05:55 10° NNW 23:11:47 85° W 23:12:18 74° S
Thor Agena Rocket 4.0 23:10:42 10° NNE 23:15:40 50° E 23:15:40 50° E
Sich 1 Rocket 3.9 23:12:38 10° N 23:16:39 63° NE 23:16:39 63° NE
COSMOS 2455 4.0 23:13:13 10° NNW 23:18:47 37° NE 23:21:45 23° E
Cosmos 1805 4.3 23:15:39 10° N 23:18:27 42° NNE 23:18:27 42° NNE
Cosmos 494 Rocket 4.3 23:15:44 10° NNW 23:20:30 53° W 23:20:30 53° W
Cosmos 1066 Rocket 4.1 23:22:33 77° SSW 23:23:00 88° W 23:28:39 10° N
COBE Rocket 3.9 23:26:12 79° W 23:26:12 79° W 23:31:22 10° NNW
Okean 2 Rocket 3.5 23:24:23 10° N 23:28:09 56° NE 23:28:09 56° NE
Meteor 1-15 Rocket 4.1 23:23:44 10° N 23:29:30 84° E 23:30:02 74° SSE
Cosmos 2151 Rocket 4.2 23:26:22 10° N 23:30:21 50° ENE 23:30:21 50° ENE
Cosmos 2227 Rocket 4.1 23:29:27 10° N 23:34:00 24° NE 23:37:44 13° E
Cosmos 44 Rocket 3.7 23:30:26 10° NW 23:34:54 55° W 23:34:54 55° W
Cosmos 2297 Rocket 3.7 23:31:21 10° N 23:36:23 31° NE 23:39:09 21° E
Cosmos 1766 4.3 23:34:07 10° N 23:36:58 44° NNE 23:36:58 44° NNE
NOSS 2-1 (C) 4.2 23:39:42 10° NW 23:44:50 73° SW 23:45:14 70° SSW
ATLAS CENTAUR R/B 3.7 23:46:20 14° WNW 23:47:38 17° NW 23:50:10 10° N
NOSS 2-1 (D) 4.3 23:46:37 10° NW 23:51:44 65° WSW 23:51:55 65° SW
Cosmos 1378 Rocket 4.3 23:53:20 46° ENE 23:53:20 46° ENE 23:56:47 10° NNE
Cosmos 1934 Rocket 3.9 23:46:45 10° NNW 23:52:48 66° W 23:53:27 61° SW
